Madison, MN

10:12 AM CDT on August 28, 2016 (GMT -0500)
Madison-Lac Qui Parle County

Weather History for KDXX - January, 2014

Change the Weather History Date:

Monday, January 6, 2014

  Actual Average (KAQP) Record (KAQP)
Temperature  
Mean Temperature -12 °F -  
Max Temperature -5 °F 19 °F 46 °F (2012)
Min Temperature -18 °F 4 °F -20 °F (2014)
Degree Days  
Heating Degree Days 76    
Moisture  
Dew Point -21 °F    
Average Humidity 64    
Maximum Humidity 71    
Minimum Humidity 54    
Precipitation  
Precipitation 0.00 in - - ()
Sea Level Pressure  
Sea Level Pressure 30.32 in    
Wind  
Wind Speed 12 mph (WNW)    
Max Wind Speed 18 mph    
Max Gust Speed 25 mph    
Visibility 10 miles    
Events      
Averages and records for this station are not official NWS values.
T = Trace of Precipitation, MM = Missing Value Source: NWS Daily Summary

Daily Weather History Graph

Daily Weather History Graph

Search for Another Location

Airport or City:

Trip Planner

Search our weather history database for the weather conditions in past years. The results will help you decide how hot, cold, wet, or windy it might be!

Date:

Astronomy

Jan. 06, 2014 Rise Set
Actual Time 8:02 AM CST 4:58 PM CST
Civil Twilight 7:29 AM CST 5:32 PM CST
Nautical Twilight 6:52 AM CST 6:09 PM CST
Astronomical Twilight 6:16 AM CST 6:44 PM CST
Moon 11:01 AM CST (1/6) 11:52 PM CST (1/6)
Length of Visible Light 10h 03m
Length of Day
8h 56m
Waxing Crescent, 35% of the Moon is Illuminated
Jan 6
Waxing Crescent
Jan 7
First Quarter
Jan 15
Full
Jan 23
Last Quarter
Jan 30
New

Hourly Weather History & Observations

Time (CST) Temp. Windchill Dew Point Humidity Pressure Visibility Wind Dir Wind Speed Gust Speed Precip Events Conditions
12:13 AM -14.8 °F -34.6 °F -23.8 °F 64% 30.41 in 10.0 mi NW 10.4 mph - N/A   Clear
12:34 AM -14.8 °F -36.6 °F -23.8 °F 64% 30.40 in 10.0 mi NW 12.7 mph - N/A   Clear
12:54 AM -16.6 °F -36.8 °F -23.8 °F 70% 30.40 in 10.0 mi NW 10.4 mph - N/A   Clear
1:13 AM -16.6 °F -36.8 °F -23.8 °F 70% 30.39 in 10.0 mi NW 10.4 mph - N/A   Clear
1:34 AM -16.6 °F -36.8 °F -23.8 °F 70% 30.39 in 10.0 mi NW 10.4 mph - N/A   Clear
1:53 AM -14.8 °F -37.5 °F -23.8 °F 64% 30.39 in 7.0 mi NW 13.8 mph - N/A   Clear
2:14 AM -16.6 °F -36.8 °F -23.8 °F 70% 30.40 in 10.0 mi NW 10.4 mph - N/A   Clear
2:33 AM -16.6 °F -40.6 °F -23.8 °F 70% 30.40 in 10.0 mi NW 15.0 mph - N/A   Clear
2:53 AM -16.6 °F -37.9 °F -25.6 °F 64% 30.40 in 10.0 mi NW 11.5 mph - N/A   Clear
3:14 AM -16.6 °F -39.8 °F -25.6 °F 64% 30.40 in 10.0 mi NW 13.8 mph - N/A   Clear
3:33 AM -16.6 °F -40.6 °F -25.6 °F 64% 30.40 in 10.0 mi NW 15.0 mph - N/A   Clear
3:53 AM -16.6 °F -37.9 °F -25.6 °F 64% 30.40 in 10.0 mi NW 11.5 mph - N/A   Clear
4:14 AM -16.6 °F -35.7 °F -25.6 °F 64% 30.40 in 10.0 mi NW 9.2 mph - N/A   Clear
4:33 AM -16.6 °F -38.9 °F -25.6 °F 64% 30.39 in 10.0 mi NW 12.7 mph - N/A   Clear
4:53 AM -16.6 °F -36.8 °F -25.6 °F 64% 30.39 in 10.0 mi NW 10.4 mph - N/A   Clear
5:14 AM -18.4 °F -37.9 °F -25.6 °F 70% 30.39 in 10.0 mi NW 9.2 mph - N/A   Clear
5:33 AM -16.6 °F -32.9 °F -25.6 °F 64% 30.39 in 10.0 mi WNW 6.9 mph - N/A   Clear
5:53 AM -16.6 °F -36.8 °F -25.6 °F 64% 30.39 in 10.0 mi NW 10.4 mph - N/A   Clear
6:14 AM -16.6 °F -36.8 °F -25.6 °F 64% 30.38 in 10.0 mi WNW 10.4 mph - N/A   Clear
6:33 AM -16.6 °F -36.8 °F -25.6 °F 64% 30.38 in 10.0 mi NW 10.4 mph - N/A   Clear
6:54 AM -16.6 °F -37.9 °F -25.6 °F 64% 30.39 in 10.0 mi NW 11.5 mph - N/A   Clear
7:14 AM -16.6 °F -38.9 °F -25.6 °F 64% 30.38 in 10.0 mi NW 12.7 mph - N/A   Clear
7:33 AM -16.6 °F -36.8 °F -25.6 °F 64% 30.38 in 10.0 mi NW 10.4 mph - N/A   Clear
7:54 AM -16.6 °F -35.7 °F -25.6 °F 64% 30.38 in 10.0 mi WNW 9.2 mph - N/A   Clear
8:14 AM -16.6 °F -34.4 °F -25.6 °F 64% 30.38 in 10.0 mi NW 8.1 mph - N/A   Clear
8:33 AM -16.6 °F -35.7 °F -25.6 °F 64% 30.38 in 10.0 mi WNW 9.2 mph - N/A   Clear
8:54 AM -16.6 °F -36.8 °F -25.6 °F 64% 30.38 in 10.0 mi WNW 10.4 mph - N/A   Clear
9:13 AM -16.6 °F -36.8 °F -25.6 °F 64% 30.39 in 10.0 mi WNW 10.4 mph - N/A   Clear
9:34 AM -14.8 °F -35.6 °F -25.6 °F 58% 30.38 in 10.0 mi WNW 11.5 mph - N/A   Clear
9:53 AM -14.8 °F -37.5 °F -23.8 °F 64% 30.38 in 10.0 mi NW 13.8 mph - N/A   Clear
10:13 AM -14.8 °F -39.1 °F -23.8 °F 64% 30.38 in 10.0 mi NW 16.1 mph 19.6 mph N/A   Clear
10:34 AM -13.0 °F -36.0 °F -23.8 °F 59% 30.37 in 10.0 mi NW 15.0 mph 23.0 mph N/A   Clear
10:53 AM -13.0 °F -38.2 °F -23.8 °F 59% 30.37 in 10.0 mi NW 18.4 mph 23.0 mph N/A   Clear
11:14 AM -11.2 °F -35.2 °F -23.8 °F 54% 30.35 in 10.0 mi NW 17.3 mph 23.0 mph N/A   Clear
11:34 AM -11.2 °F -34.4 °F -22.0 °F 59% 30.34 in 10.0 mi NW 16.1 mph 20.7 mph N/A   Clear
11:53 AM -9.4 °F -29.8 °F -20.2 °F 59% 30.33 in 10.0 mi WNW 12.7 mph 18.4 mph N/A   Clear
12:14 PM -9.4 °F -30.6 °F -20.2 °F 59% 30.32 in 10.0 mi WNW 13.8 mph 19.6 mph N/A   Clear
12:34 PM -7.6 °F -29.1 °F -18.4 °F 59% 30.31 in 10.0 mi WNW 15.0 mph 19.6 mph N/A   Clear
12:53 PM -7.6 °F -29.1 °F -18.4 °F 59% 30.31 in 10.0 mi WNW 15.0 mph 20.7 mph N/A   Clear
1:14 PM -7.6 °F -31.1 °F -18.4 °F 59% 30.30 in 10.0 mi WNW 18.4 mph - N/A   Clear
1:33 PM -7.6 °F -30.5 °F -18.4 °F 59% 30.30 in 10.0 mi WNW 17.3 mph 25.3 mph N/A   Clear
1:53 PM -7.6 °F -31.1 °F -18.4 °F 59% 30.29 in 10.0 mi WNW 18.4 mph 23.0 mph N/A   Clear
2:14 PM -7.6 °F -31.1 °F -16.6 °F 65% 30.29 in 10.0 mi WNW 18.4 mph 25.3 mph N/A   Clear
2:33 PM -5.8 °F -28.8 °F -16.6 °F 60% 30.29 in 10.0 mi WNW 18.4 mph 24.2 mph N/A   Clear
2:53 PM -5.8 °F -26.0 °F -16.6 °F 60% 30.29 in 10.0 mi WNW 13.8 mph 23.0 mph N/A   Clear
3:14 PM -5.8 °F -27.5 °F -16.6 °F 60% 30.28 in 10.0 mi WNW 16.1 mph 20.7 mph N/A   Clear
3:34 PM -5.8 °F -26.8 °F -16.6 °F 60% 30.29 in 10.0 mi WNW 15.0 mph - N/A   Clear
3:53 PM -5.8 °F -26.8 °F -16.6 °F 60% 30.28 in 10.0 mi WNW 15.0 mph - N/A   Clear
4:14 PM -5.8 °F -28.2 °F -16.6 °F 60% 30.27 in 10.0 mi WNW 17.3 mph - N/A   Clear
4:34 PM -5.8 °F -28.2 °F -16.6 °F 60% 30.27 in 10.0 mi WNW 17.3 mph - N/A   Clear
4:53 PM -5.8 °F -26.0 °F -16.6 °F 60% 30.27 in 10.0 mi West 13.8 mph - N/A   Clear
5:13 PM -7.6 °F -25.7 °F -16.6 °F 65% 30.26 in 10.0 mi West 10.4 mph - N/A   Clear
5:34 PM -7.6 °F -23.4 °F -16.6 °F 65% 30.26 in 10.0 mi West 8.1 mph - N/A   Clear
5:53 PM -7.6 °F -23.4 °F -16.6 °F 65% 30.26 in 10.0 mi West 8.1 mph - N/A   Clear
6:13 PM -9.4 °F -26.8 °F -16.6 °F 71% 30.25 in 10.0 mi WNW 9.2 mph - N/A   Clear
6:34 PM -9.4 °F -24.3 °F -16.6 °F 71% 30.25 in 10.0 mi West 6.9 mph - N/A   Clear
6:53 PM -9.4 °F -26.8 °F -18.4 °F 65% 30.25 in 10.0 mi WNW 9.2 mph - N/A   Clear
7:13 PM -9.4 °F -26.8 °F -16.6 °F 71% 30.25 in 10.0 mi West 9.2 mph - N/A   Clear
7:33 PM -7.6 °F -24.6 °F -16.6 °F 65% 30.25 in 10.0 mi WNW 9.2 mph - N/A   Clear
7:54 PM -7.6 °F -26.6 °F -16.6 °F 65% 30.24 in 10.0 mi WNW 11.5 mph - N/A   Clear
8:13 PM -7.6 °F -25.7 °F -14.8 °F 71% 30.23 in 10.0 mi West 10.4 mph - N/A   Clear
8:34 PM -7.6 °F -27.5 °F -14.8 °F 71% 30.23 in 10.0 mi West 12.7 mph - N/A   Clear
8:54 PM -7.6 °F -26.6 °F -14.8 °F 71% 30.23 in 10.0 mi West 11.5 mph - N/A   Clear
9:13 PM -7.6 °F -26.6 °F -14.8 °F 71% 30.23 in 10.0 mi WNW 11.5 mph - N/A   Clear
9:34 PM -5.8 °F -25.2 °F -14.8 °F 65% 30.22 in 10.0 mi West 12.7 mph - N/A   Clear
9:53 PM -7.6 °F -24.6 °F -14.8 °F 71% 30.21 in 10.0 mi West 9.2 mph - N/A   Clear
10:14 PM -5.8 °F -21.2 °F -14.8 °F 65% 30.20 in 10.0 mi WNW 8.1 mph - N/A   Clear
10:34 PM -5.8 °F -16.7 °F -14.8 °F 65% 30.19 in 10.0 mi West 4.6 mph - N/A   Clear
10:53 PM -5.8 °F -19.9 °F -14.8 °F 65% 30.19 in 10.0 mi West 6.9 mph - N/A   Clear
11:14 PM -5.8 °F -19.9 °F -14.8 °F 65% 30.19 in 10.0 mi West 6.9 mph - N/A   Clear
11:33 PM -7.6 °F -20.6 °F -14.8 °F 71% 30.18 in 10.0 mi West 5.8 mph - N/A   Clear
11:53 PM -5.8 °F -19.9 °F -13.0 °F 71% 30.17 in 10.0 mi West 6.9 mph - N/A   Clear